Regional Weather Roundup
Issued by NWS

Home | Current Version | Previous Version | Text Only | Print | Product List | Glossary On
Versions: 1 2 3 4 5 6 7 8 9 10 11 12 13 14 15 16 17 18 19 20 21 22 23 24 25 26 27 28 29 30 31 32 33 34 35 36 37 38 39 40 41 42 43 44 45 46 47 48 49 50
000
ASUS43 KIND 260009
RWRIN

WEATHER ROUNDUP FOR INDIANA
NATIONAL WEATHER SERVICE INDIANAPOLIS IN
700 PM EST SUN FEB 25 2018

NOTE: "FAIR" INDICATES FEW OR NO CLOUDS BELOW 12,000 FEET WITH NO
SIGNIFICANT WEATHER AND/OR OBSTRUCTIONS TO VISIBILITY.

* - STATION DOES NOT REPORT WEATHER SUCH AS PRECIPITATION OR FOG.

+ - STATION NOT QUALITY CONTROLLED BY THE NATIONAL WEATHER SERVICE.
    USE DATA WITH CAUTION...ESPECIALLY DEWPOINT AND RELATIVE
    HUMIDITY OBSERVATIONS.

INZ001>003-010>013-019-020-260100-
NORTHWEST INDIANA

CITY           SKY/WX    TMP DP  RH WIND       PRES   REMARKS
GARY /AIRPORT/ PTCLDY    45  19  36 SW14G28   30.05R
LA PORTE +     FAIR      39  25  56 SW9       30.07R WCI  33
6HR MIN TEMP:  39; 6HR MAX TEMP:  44; 6HR PCP:  0.01;

MICHIGAN CITY+ FAIR      39  23  52 SW10      30.06R WCI  32
MONTICELLO +   FAIR      40  30  67 W9G16     30.10R WCI  34
6HR MIN TEMP:  38; 6HR MAX TEMP:  44;

RENSSELAER +   FAIR      41  23  48 SW12      30.10R
VALPARAISO     FAIR      41  27  57 SW10      30.07R
6HR MIN TEMP:  41; 6HR MAX TEMP:  46;


$$

LMZ046-743>745-260100-
SOUTHERN LAKE MICHIGAN

STATION/POSITION TIME  TEMP    WIND        PRES    WAVE
                       AIR SEA DIR/SP/G            HT
                 (UTC) (F)     (DEG/KT/KT) (MB)    (FT)
BURNS HARBOR     2340   43     240/ 17/ 21 1017.9R
MICHIGAN CITY    2340   41     220/ 22/ 24   N/A

$$

INZ004-005-014>016-021>024-260100-
NORTH CENTRAL INDIANA

CITY           SKY/WX    TMP DP  RH WIND       PRES   REMARKS
GOSHEN         FAIR      39  27  62 W12       30.05R WCI  32
6HR MIN TEMP:  39; 6HR MAX TEMP:  44;

LOGANSPORT +   FAIR      37  30  75 W12G21    30.11R WCI  30
PERU/GRISSOM   FAIR      39  34  81 W9        30.09R WCI  33
6HR MIN TEMP:  39; 6HR MAX TEMP:  45;

ROCHESTER +    FAIR      41  30  65 W10       30.10R
SOUTH BEND     FAIR      39  23  52 SW13      30.06R WCI  31
6HR MIN TEMP:  39; 6HR MAX TEMP:  43;

WARSAW +       FAIR      37  28  70 E14       30.07R WCI  29

$$

INZ006>009-017-018-025>027-260100-
NORTHEAST INDIANA

CITY           SKY/WX    TMP DP  RH WIND       PRES   REMARKS
AUBURN +       FAIR      37  30  75 SW9       30.06R WCI  31
FORT WAYNE     FAIR      40  31  70 W13       30.08R WCI  32
6HR MIN TEMP:  40; 6HR MAX TEMP:  45;

HUNTINGTON +   FAIR      39  28  66 W12       30.09R WCI  32
6HR MIN TEMP:  38; 6HR MAX TEMP:  43;

KENDALLVILLE + FAIR      38  29  69 W13       30.05R WCI  30

$$

INZ028-029-035-036-043>045-051>053-260100-
WEST CENTRAL INDIANA

CITY           SKY/WX    TMP DP  RH WIND       PRES   REMARKS
CRAWFORDSVL +  FAIR      40  29  67 W9          N/A  WCI  33
6HR MIN TEMP:  40; 6HR MAX TEMP:  44;

GREENCASTLE +  FAIR      43  28  56 W3        30.13R
LAFAYETTE      FAIR      41  30  65 W9        30.10R
6HR MIN TEMP:  39; 6HR MAX TEMP:  45;

TERRE HAUTE    FAIR      45  30  55 W8        30.13R
6HR MIN TEMP:  45; 6HR MAX TEMP:  49;


$$

INZ030>032-037>040-046>048-054>057-064-065-260100-
CENTRAL INDIANA

CITY           SKY/WX    TMP DP  RH WIND       PRES   REMARKS
COLUMBUS       CLEAR     46 N/A N/A SW8       30.11R
FRANKFORT +    FAIR      42  34  73 W10       30.11R
6HR MIN TEMP:  42; 6HR MAX TEMP:  47;

INDIANAPOLIS   MOCLDY    43  30  60 W7        30.11R
6HR MIN TEMP:  42; 6HR MAX TEMP:  49;

-EAGLE CREEK   FAIR      44  30  57 W7        30.11R
6HR MIN TEMP:  44; 6HR MAX TEMP:  49;

KOKOMO +       FAIR      41  30  65 W12       30.10R
6HR MIN TEMP:  40; 6HR MAX TEMP:  45;

MARION +       FAIR      40  32  73 W13       30.10R WCI  32
MT COMFORT *+  FAIR      43  32  65 W14       30.10R
SHELBYVILLE    FAIR      46  32  58 W8        30.10R
6HR MIN TEMP:  45; 6HR MAX TEMP:  50;

ZIONSVILLE +   FAIR      40  31  71 W6        30.11R WCI  36
6HR MIN TEMP:  40; 6HR MAX TEMP:  45;


$$

INZ033-034-041-042-049-050-058-059-260100-
EAST CENTRAL INDIANA

CITY           SKY/WX    TMP DP  RH WIND       PRES   REMARKS
MUNCIE         FAIR      44  32  62 W12       30.09R
6HR MIN TEMP:  44; 6HR MAX TEMP:  48;

RICHMOND +     FAIR      43  32  65 W9        30.08S

$$

INZ060-061-067>069-081>083-085>088-260100-
SOUTHWEST INDIANA

CITY           SKY/WX    TMP DP  RH WIND       PRES   REMARKS
EVANSVILLE     FAIR      47  35  63 CALM      30.14S
6HR MIN TEMP:  46; 6HR MAX TEMP:  50;

HUNTINGBURG +  FAIR      44  36  73 W5        30.15R
6HR MIN TEMP:  44; 6HR MAX TEMP:  50;

WASHINGTON +   FAIR      44  33  65 W5        30.13R
6HR MIN TEMP:  44; 6HR MAX TEMP:  49;


$$

INZ062-063-066-070>080-084-089>092-260100-
SOUTH CENTRAL AND SOUTHEAST INDIANA

CITY           SKY/WX    TMP DP  RH WIND       PRES   REMARKS
BATESVILLE +   CLEAR     45  34  65 MISG      30.09R
BLOOMINGTON    FAIR      45  31  58 W6        30.11R
6HR MIN TEMP:  45; 6HR MAX TEMP:  49;

FRENCH LICK *+ FAIR      45  27  49 W5        30.13S
MADISON *+     FAIR      45  34  65 CALM      30.13R
NORTH VERNON + FAIR      45  32  61 SW7       30.11R
SEYMOUR +      FAIR      46  32  57 W8        30.12R

$$





USA.gov is the U.S. government's official web portal to all federal, state and local government web resources and services.